World > North America > United States > California > Del Mar   City of Del Mar, California

Del Mar, CA Hourly Weather Updates

Feedback E-mail the Weather

Quick Clicks

Del Mar, CA Weather Maps

°F °C°F °C
Del Mar Weather Map
UTC Time: 4/13/2024, 16:28
Your Time:

Del Mar, CA Regional Weather

Expires:202404131700;;677966
ASUS46 KSGX 131610
RWRSGX

SAN DIEGO HOURLY WEATHER ROUNDUP
NATIONAL WEATHER SERVICE SAN DIEGO CA
900 AM PDT SAT APR 13 2024

NOTE: "FAIR" INDICATES FEW OR NO CLOUDS BELOW 12,000 FEET WITH NO 
SIGNIFICANT WEATHER AND/OR OBSTRUCTIONS TO VISIBILITY.


CAZ042-043-060-061-PZZ750-775-131700-

GREATER SAN DIEGO AREA
  
CITY           SKY/WX    TMP DP  RH WIND       PRES   REMARKS
SAN DIEGO AP   CLOUDY    62  45  53 SE9       30.08R                  
BROWN FIELD    CLOUDY    61  42  49 SE8       30.06R                  
MIRAMAR MCAS   CLOUDY    57  46  66 SE7       30.06R                  
MONTGOMERY FLD CLOUDY    59  44  57 SE8       30.06R                  
GILLESPIE FLD  CLOUDY    59  45  58 VRB7      30.07R                  
LEMON GROVE      N/A     58  46  63 E3        30.05R                  

$$

NORTH SAN DIEGO COUNTY
  
CITY           SKY/WX    TMP DP  RH WIND       PRES   REMARKS
CAMP PENDLETON CLOUDY    63  47  55 E6        30.06R                  
OCEANSIDE AP   CLOUDY    62  47  57 E9        30.05R                  
OCEANSIDE HBR    N/A     60  48  64 E6        30.10R                  
VISTA            N/A     60  48  65 W2        30.05R                  
CARLSBAD       CLOUDY    59  43  55 E8        30.05R                  
LA JOLLA SCRIP   N/A     59  45  58 CALM      30.06R                  
FALLBROOK      CLOUDY    55  46  71 CALM      30.07R                  
ESCONDIDO        N/A     58  47  67 SE3       30.07R                  
SAN MARCOS       N/A     58  48  70 S1        30.04R                  
RANCHO BERNARD   N/A     57  47  70 CALM      30.06R                  
POWAY            N/A     58  48  69 S2        30.09R                  

$$

EAST SAN DIEGO COUNTY
  
CITY           SKY/WX    TMP DP  RH WIND       PRES   REMARKS
RAMONA         CLOUDY    55  44  66 S3        30.06R                  
SANTEE           N/A     58  50  74 CALM      30.03R                  
LA MESA          N/A     59  47  65 CALM      30.00S                  
EL CAJON         N/A     58  47  66 NW1       29.95R                  
ALPINE           N/A     53  44  70 CALM      30.25R                  
DESCANSO N       N/A     47  39  72 SW2       30.07R                  

$$

ORANGE COUNTY AND THE LOS ANGELES BASIN
  
CITY           SKY/WX    TMP DP  RH WIND       PRES   REMARKS
JOHN WAYNE AP  PTSUNNY   61  45  55 E8        30.05R                  
LAGUNA BEACH     N/A     60  51  71 CALM      30.04R                  
LAKE FOREST FR   N/A     56  40  56 CALM      29.93R                  
SANTA ANA        N/A     60  48  65 CALM      30.04R                  
HUNTINGTON BCH   N/A     61  52  72 SE5       30.05R                  
LOS ALAMITOS   CLOUDY    61  47  61 SE7       30.02R                  
FULLERTON      CLOUDY    60  45  57 E7        30.05R                  
LONG BEACH     CLOUDY    62  46  55 SE10      30.04R                  
L.A. AP        CLOUDY    59  47  64 E17       30.03S                  
L.A. DOWNTOWN  CLOUDY    61  45  55 E8        30.05R                  

$$

THE INLAND EMPIRE
  
CITY           SKY/WX    TMP DP  RH WIND       PRES   REMARKS
CORONA         CLOUDY    59  45  59 CALM      30.07R                  
UPLAND AP      CLOUDY    55  41  58 CALM      30.06                   
CHINO          PTSUNNY   58  48  69 CALM      30.07R                  
ONTARIO        PTSUNNY   57  39  51 SE5       30.05R                  
SAN BERNARDINO CLOUDY    57  36  44 CALM      30.06S HAZE             
RIVERSIDE AP   CLOUDY    59  42  53 SE9       30.05S                  
MORENO VALLEY    N/A     53  46  75 CALM      28.29S                  
MARCH ARB      CLOUDY    55  42  61 S3        30.05S                  
HORSETHIEF CYN   N/A     54  42  63 SE2       30.03R                  
PERRIS           N/A     55  42  61 S3        30.11R                  
HEMET AP       CLOUDY    54  42  63 SW6       30.06R                  
FRENCH VALLEY  CLOUDY    55  37  50 S8        30.06S                  
TEMECULA         N/A     57  47  68 SW2       30.04R                  

$$

SAN BERNARDINO AND RIVERSIDE COUNTY MOUNTAINS
  
CITY           SKY/WX    TMP DP  RH WIND       PRES   REMARKS
BIG BEAR AP    SUNNY     48   0  13 W15       30.02S                  
BIG BEAR LAKE    N/A     50   1  13 S2        29.93S                  
WRIGHTWOOD       N/A     45  31  59 CALM      29.71R                  
ANGELUS OAKS     N/A     40  26  56 CALM      29.90R                  
IDYLLWILD        N/A     43  26  50 CALM      29.88R                  

$$

SOUTHERN DESERT INCLUDING THE COACHELLA VALLEY
  
CITY           SKY/WX    TMP DP  RH WIND       PRES   REMARKS
PALM SPRINGS   SUNNY     66  41  40 SW6G14    29.98R                  
THOUSAND PALMS   N/A     65  43  45 W12       29.91R                  
THERMAL        SUNNY     67  40  37 NW12      29.96S                  
BORREGO AP     SUNNY     66  30  26 NW7       29.97R                  
OCOTILLO WELLS   N/A     69  30  23 SE3       29.91R                  
CANEBRAKE        N/A     63  31  30 E2        29.92R                  
BLYTHE         SUNNY     69  38  32 S9        29.96S                  
IMPERIAL AP    SUNNY     66  40  38 NW7       29.96R                  
EL CENTRO NAS  MOSUNNY   70  37  29 NW12      29.97S                  
YUMA AZ        SUNNY     70  42  36 SE18      29.96R                  

$$

UPPER DESERT
  
CITY           SKY/WX    TMP DP  RH WIND       PRES   REMARKS
VICTORVILLE AP SUNNY     52  36  54 SW13      30.02R                  
HESPERIA         N/A     49  37  62 SW15      29.78R                  
APPLE VALLEY     N/A     54  39  57 CALM      29.96S                  
PALMDALE       SUNNY     54  38  54 SW12G21   29.98S                  
LANCASTER      SUNNY     53  37  54 SW21G32   29.99R                  
EDWARDS AFB    MOSUNNY   52  38  59 SW6       29.97R                  
GRAY BUTTE AP  SUNNY     50  38  64 NW10      29.94R                  
DAGGETT        SUNNY     55  39  54 NW13      29.98S                  
29 PALMS N     SUNNY     62  25  24 CALM      30.03R                  
29 PALMS JTNP    N/A     64  29  26 CALM      29.85R                  
NEEDLES        SUNNY     75  28  17 S9        29.96S                  

$$

REGIONAL REPORTS
  
CITY           SKY/WX    TMP DP  RH WIND       PRES   REMARKS
SANTA BARBARA  CLOUDY    58  50  75 SE16G28   29.98R                  
SANDBERG       LGT RAIN  40  39  97 S25G39    29.97R VSB<1/4 WCI  29  
LAS VEGAS NV   SUNNY     67  23  19 S10G29    29.96R                  
PHOENIX AZ     SUNNY     73  31  21 SE8       30.01S                  
TIJUANA        CLOUDY    59  43  55 E5        30.09R                  
ENSENADA NW      N/A     61  32  34 S8        29.86R                  

$$

OFFSHORE ISLANDS
  
CITY           SKY/WX    TMP DP  RH WIND       PRES   REMARKS
CATALINA ARPT  CLOUDY    54  46  74 SE14      30.03R                  
SAN NICOLAS IS LGT RAIN  54  53  97 SW10      30.00R FOG              

$$

MARINE AND OFFSHORE BUOY REPORTS
  
STATION/POSITION SKY/WX   TEMP    WIND        PRES    VSBY  SWELL
                          AIR SEA DIR/SP/G                  HT/PER/DIR
                          (F)     (DEG/KT/KT) (MB)    (MI)  (FT/S/D)
TANNER BANKS               57 58  260/  8/  8 1015.9R         3/280/13
S CLEMENTE BASIN           61 60  140/ 14/ 16 1016.0R         3/210/13
SAN NICOLAS IS.               57                N/A           3/140/17
SO. S. ROSA ISLA           56 58  120/ 10/ 14 1013.7F         3/240/13
W. S. BARBARA CH           54 55  120/ 16/ 19 1013.6R
M. S. BARBARA CH           56 54  100/ 16/ 17 1014.0R
S. MONICA BASIN            58 57  120/ 14/ 17 1016.6R         2/250/14
S PEDRO CHANNEL               58                N/A           2/160/17
OCEANSIDE OFFSHR              59                N/A           2/200/13
TORREY PINES OTR              60                N/A           2/210/13
SAN DIEGO BAY                 63              1017.7R
IMPERIAL BEACH                59                N/A           2/260/13
POINT LOMA SOUTH                                N/A           3/220/13

$$

  

SKY/WX - Weather  TMP - Temperature  DP - Dew Point  RH - Humidity
WIND - Wind Direction/Speed PRES - Barometric Pressure VSB - Visibility
WCI - Wind Chill Index E13G22 Wind - East Wind 13 mph/Gusts of 22 mph

Trending Headlines

Trending Entertainment Headlines

Del Mar Radar Loop

Use the map search tool if you want to place a location marker on the radar map...

Del Mar Quick Facts

National Two Day Weather Forecast


E-mail the Del Mar Weather Forecast

Voice your opinion or tell us about page issues...